Location: Goettingen
(51.5300°N, 9.9433°E)
Time: 05:51:31
(UTC+01:00)

ISS - Pass Details

Date: 06 December 2019
Orbit: 411 x 421 km, 51.6° (Epoch: 15 December)

Event Time Altitude Azimuth Distance (km) Brightness Sun altitude
Rises 16:47:00 0° 275° (W) 2,355 1.1 -5.3°
Reaches altitude 10° 16:49:05 10° 275° (W) 1,493 0.0 -5.6°
Maximum altitude 16:52:26 89° 360° (N) 423 -3.7 -6.1°
Drops below altitude 10° 16:55:49 10° 96° (E) 1,498 -1.4 -6.5°
Enters shadow 16:56:53 - 96° (E) 1,936 -0.9 -6.7°
